GW4049 Weather Reports


time (UTC)temp
F
wind
direction
speed
knots
gust
knots
rain 1hr
in
rain 24hr
in
rain mn
in
humidity
%
barometer
mb
20260901092704 51 185 3.5 6.1 0.00 0.05 0.05 87 1031.8
20260901092200 51 204 7.0 9.6 0.00 0.05 0.05 87 1031.8
20260901091650 51 220 3.5 5.2 0.00 0.05 0.05 88 1031.9
20260901091149 50 180 3.5 6.1 0.00 0.05 0.05 89 1032.0
20260901090644 51 205 1.7 3.5 0.00 0.05 0.05 89 1032.0
20260901090140 50 224 2.6 6.1 0.00 0.05 0.05 91 1032.1
20260901085636 49 242 1.7 1.7 0.00 0.05 0.05 94 1032.0
20260901085132 48 218 3.5 5.2 0.00 0.05 0.05 97 1032.1
20260901084628 48 233 1.7 3.5 0.00 0.05 0.05 98 1032.4
20260901084124 48 232 2.6 2.6 0.00 0.05 0.05 98 1032.3
20260901083624 48 240 0.9 1.7 0.00 0.05 0.05 98 1032.1
20260901083122 48 247 0.9 2.6 0.00 0.05 0.05 98 1032.3
20260901082617 48 222 1.7 1.7 0.00 0.05 0.05 98 1032.3
20260901082113 48 224 1.7 1.7 0.00 0.05 0.05 98 1032.1
20260901081608 48 237 0.9 1.7 0.00 0.05 0.05 98 1032.3
20260901081108 48 244 0.9 1.7 0.00 0.05 0.05 98 1032.3
20260901080602 48 232 1.7 2.6 0.00 0.05 0.05 98 1032.4
20260901080101 48 225 1.7 1.7 0.00 0.05 0.05 98 1032.3
20260901075556 48 238 0.9 1.7 0.00 0.05 0.05 98 1032.4
20260901075055 48 218 0.0 0.0 0.00 0.05 0.05 99 1032.5
20260901074549 48 242 0.0 0.0 0.00 0.05 0.05 99 1032.5
20260901074045 48 241 0.9 0.9 0.00 0.05 0.05 98 1032.7
20260901073541 48 242 0.9 1.7 0.05 0.05 0.05 98 1032.7
20260901073036 49 254 0.0 0.0 0.05 0.05 0.05 97 1032.9
20260901072531 49 253 0.9 1.7 0.00 0.04 0.04 97 1032.7
20260901072026 49 252 0.0 0.0 0.00 0.04 0.04 97 1032.8
20260901071525 48 262 0.9 2.6 0.00 0.04 0.04 96 1032.9
20260901071024 49 247 0.9 1.7 0.00 0.04 0.04 96 1032.8
20260901070519 49 233 1.7 2.6 0.00 0.04 0.04 96 1032.7
20260901070015 49 232 1.7 3.5 0.00 0.04 0.04 96 1032.7
20260901065509 49 250 0.9 1.7 0.00 0.04 0.04 96 1032.5
20260901064958 49 241 1.7 3.5 0.00 0.04 0.04 95 1032.7
20260901064455 49 244 1.7 6.1 0.07 0.04 0.04 95 1032.7
20260901063952 49 241 4.3 7.0 0.19 0.04 0.04 96 1032.9
20260901063448 49 204 2.6 3.5 0.19 0.03 0.03 97 1033.2
20260901062943 48 246 1.7 2.6 0.07 0.01 0.01 98 1033.5
20260901062438 49 238 0.9 1.7 0.00 0.00 0.00 98 1032.9
20260901061929 49 245 0.9 1.7 0.00 0.00 0.00 98 1032.9
20260901061424 49 237 0.9 1.7 0.00 0.00 0.00 98 1033.1
20260901060914 49 234 1.7 1.7 0.00 0.00 0.00 98 1032.9
20260901060409 49 237 0.9 1.7 0.00 0.00 0.00 98 1032.7
20260901055908 49 246 0.9 0.9 0.00 0.12 0.12 98 1033.1
20260901055405 49 231 1.7 1.7 0.00 0.12 0.12 98 1033.1
20260901054901 49 219 1.7 1.7 0.05 0.12 0.12 97 1033.1
20260901054358 49 238 1.7 2.6 0.05 0.12 0.12 97 1033.1
20260901053853 49 229 3.5 5.2 0.00 0.11 0.11 98 1033.9
20260901053349 49 224 1.7 2.6 0.00 0.11 0.11 99 1033.5
20260901052844 49 228 1.7 2.6 0.00 0.11 0.11 99 1033.1
20260901052339 49 239 0.9 1.7 0.00 0.11 0.11 99 1032.9
20260901051838 49 226 1.7 1.7 0.00 0.11 0.11 99 1032.7
20260901051333 49 227 1.7 1.7 0.00 0.11 0.11 99 1033.1
20260901050828 49 224 1.7 1.7 0.00 0.11 0.11 99 1033.1
20260901050319 49 230 1.7 1.7 0.00 0.11 0.11 99 1033.3
20260901045813 49 234 0.9 1.7 0.00 0.11 0.11 99 1033.5
20260901045308 49 223 1.7 2.6 0.00 0.11 0.11 99 1033.3
20260901044803 49 229 1.7 1.7 0.00 0.11 0.11 99 1033.2
20260901044259 49 232 1.7 1.7 0.00 0.11 0.11 99 1033.3
20260901043754 49 219 2.6 2.6 0.00 0.11 0.11 99 1033.3
20260901043250 49 248 0.9 0.9 0.00 0.11 0.11 98 1033.5
20260901042750 49 223 1.7 1.7 0.00 0.11 0.11 98 1033.3
20260901042245 49 235 1.7 1.7 0.00 0.11 0.11 98 1033.3
20260901041740 49 242 0.9 1.7 0.00 0.11 0.11 98 1033.5
20260901041240 49 221 1.7 1.7 0.00 0.11 0.11 98 1033.6
20260901040735 49 230 1.7 1.7 0.00 0.11 0.11 98 1033.5
20260901040233 49 241 1.7 1.7 0.00 0.11 0.11 97 1033.3
20260901035732 49 221 1.7 1.7 0.00 0.11 0.11 97 1033.5
20260901035232 50 224 1.7 2.6 0.00 0.11 0.11 96 1033.5
20260901034731 50 220 1.7 1.7 0.00 0.11 0.11 95 1033.3
20260901034226 51 215 1.7 1.7 0.00 0.11 0.11 92 1033.2
20260901033726 50 274 1.7 2.6 0.00 0.11 0.11 95 1033.2
20260901033220 50 270 0.9 2.6 0.00 0.11 0.11 96 1033.3
20260901032718 50 247 0.9 1.7 0.00 0.11 0.11 97 1033.5
20260901032213 50 246 0.9 0.9 0.00 0.11 0.11 95 1033.3
20260901031708 50 354 1.7 2.6 0.00 0.11 0.11 94 1033.3
20260901031204 50 255 1.7 1.7 0.00 0.11 0.11 93 1033.1
20260901030659 50 232 3.5 3.5 0.00 0.11 0.11 92 1033.2
20260901030158 51 263 0.9 0.9 0.00 0.11 0.11 92 1033.7
20260901025653 50 253 0.0 3.5 0.00 0.11 0.11 88 1033.7
20260901025148 50 243 2.6 6.1 0.00 0.11 0.11 93 1033.7
20260901024648 50 248 0.0 0.9 0.00 0.11 0.11 96 1033.9
20260901024147 50 271 0.0 0.0 0.07 0.11 0.11 94 1033.9
20260901023646 50 259 0.0 1.7 0.07 0.11 0.11 94 1034.5
20260901023141 50 179 3.5 5.2 0.00 0.10 0.10 95 1034.6
20260901022636 50 193 3.5 7.0 0.05 0.10 0.10 95 1034.5
20260901022131 50 248 3.5 6.1 0.12 0.10 0.10 95 1034.5
20260901021621 50 241 3.5 6.1 0.19 0.09 0.09 95 1034.5
20260901021117 50 237 3.5 6.1 0.19 0.07 0.07 95 1034.5
20260901020613 51 252 5.2 7.0 0.19 0.05 0.05 94 1034.5
20260901020108 51 199 4.3 7.8 0.24 0.04 0.04 92 1034.0
20260901015603 52 239 3.5 7.0 0.12 0.02 0.02 90 1034.0
20260901015102 53 206 4.3 6.1 0.00 0.00 0.00 87 1034.0
20260901014557 55 246 7.0 8.7 0.00 0.00 0.00 79 1034.0
20260901014053 56 248 1.7 3.5 0.00 0.00 0.00 74 1033.7
20260901013549 56 195 1.7 2.6 0.00 0.00 0.00 76 1033.7
20260901013044 57 231 1.7 1.7 0.00 0.00 0.00 75 1033.5
20260901012544 57 242 0.0 0.9 0.00 0.00 0.00 69 1033.6
20260901012039 57 247 1.7 1.7 0.00 0.00 0.00 70 1033.2
20260901011536 57 298 1.7 1.7 0.00 0.00 0.00 67 1033.3
20260901011033 57 290 0.0 2.6 0.00 0.00 0.00 68 1033.1
20260901010528 57 296 0.9 3.5 0.00 0.00 0.00 68 1032.7
20260901010028 58 298 1.7 2.6 0.00 0.00 0.00 69 1032.8
20260901005522 58 273 0.0 1.7 0.00 0.00 0.00 69 1032.9
20260901005017 58 316 1.7 1.7 0.00 0.00 0.00 68 1032.9
20260901004512 58 284 1.7 1.7 0.00 0.00 0.00 69 1032.9
20260901004006 58 283 0.9 2.6 0.00 0.00 0.00 69 1032.9
20260901003502 58 281 1.7 1.7 0.00 0.00 0.00 69 1032.9
20260901002959 59 348 3.5 5.2 0.00 0.00 0.00 68 1033.2
20260901002454 59 298 0.9 2.6 0.00 0.00 0.00 68 1033.2
20260901001948 60 304 3.5 7.0 0.00 0.00 0.00 64 1033.3
20260901001444 60 314 0.9 2.6 0.00 0.00 0.00 62 1033.1
20260901000939 61 326 0.9 2.6 0.00 0.00 0.00 63 1033.2
20260901000435 60 276 0.9 1.7 0.00 0.00 0.00 58 1033.3
20260831235933 60 270 0.0 0.9 0.00 0.00 0.00 65 1033.6
20260831235428 61 254 0.9 0.9 0.00 0.00 0.00 63 1033.6
20260831234923 62 352 1.7 2.6 0.00 0.00 0.00 55 1033.6
20260831234418 62 278 0.0 1.7 0.00 0.00 0.00 57 1033.3
20260831233913 63 264 0.0 5.2 0.00 0.00 0.00 52 1033.2
20260831233408 63 318 1.7 7.0 0.00 0.00 0.00 52 1033.2
20260831232904 63 269 0.0 1.7 0.00 0.00 0.00 52 1032.9
20260831232400 63 8 3.5 5.2 0.00 0.00 0.00 52 1032.9
20260831231855 64 19 3.5 5.2 0.00 0.00 0.00 51 1033.1
20260831231352 63 297 0.9 5.2 0.00 0.00 0.00 52 1032.9
20260831230847 63 326 1.7 6.1 0.00 0.00 0.00 51 1033.1
20260831230341 64 298 0.9 8.7 0.00 0.00 0.00 53 1032.9
20260831225836 64 325 1.7 11.3 0.00 0.00 0.00 53 1032.9
20260831225330 64 0 2.6 3.5 0.00 0.00 0.00 51 1032.9
20260831224826 65 343 2.6 7.0 0.00 0.00 0.00 51 1033.1
20260831224321 64 339 0.9 1.7 0.00 0.00 0.00 53 1033.2
20260831223816 64 341 2.6 7.0 0.00 0.00 0.00 52 1033.2
20260831223312 65 96 0.9 1.7 0.00 0.00 0.00 52 1033.3
20260831222809 64 255 0.9 2.6 0.00 0.00 0.00 53 1033.2
20260831222306 64 312 3.5 5.2 0.00 0.00 0.00 53 1033.1
20260831221759 66 341 0.9 2.6 0.00 0.00 0.00 51 1033.1
20260831221254 65 304 2.6 3.5 0.00 0.00 0.00 51 1033.3
20260831220755 65 20 5.2 6.1 0.00 0.00 0.00 51 1033.3
20260831220250 65 348 1.7 7.8 0.00 0.00 0.00 52 1033.3
20260831215749 64 269 0.0 3.5 0.00 0.00 0.00 53 1033.5
20260831215246 64 248 1.7 2.6 0.00 0.00 0.00 54 1033.3
20260831214742 64 65 5.2 7.8 0.00 0.00 0.00 53 1033.2
20260831214239 64 299 0.9 3.5 0.00 0.00 0.00 53 1033.5
20260831213735 64 0 1.7 8.7 0.00 0.00 0.00 53 1033.2
20260831213232 65 203 1.7 3.5 0.00 0.00 0.00 51 1033.3
20260831212731 66 76 1.7 7.0 0.00 0.00 0.00 52 1033.3
20260831212228 66 50 4.3 6.1 0.00 0.00 0.00 51 1033.5
20260831211726 65 348 4.3 8.7 0.00 0.00 0.00 52 1033.6
20260831211222 66 88 5.2 7.8 0.00 0.00 0.00 50 1033.6
20260831210716 68 277 1.7 7.0 0.00 0.00 0.00 50 1033.7
20260831210213 66 228 0.9 3.5 0.00 0.00 0.00 50 1033.6
20260831205712 67 311 2.6 5.2 0.00 0.00 0.00 50 1034.0
20260831205208 67 343 2.6 3.5 0.00 0.00 0.00 51 1033.9
20260831204703 65 28 1.7 7.0 0.00 0.00 0.00 52 1033.6
20260831204202 65 84 2.6 6.1 0.00 0.00 0.00 53 1033.9
20260831203701 65 257 2.6 6.1 0.00 0.00 0.00 52 1033.7
20260831203156 65 101 3.5 7.0 0.00 0.00 0.00 53 1034.0
20260831202654 65 304 1.7 3.5 0.00 0.00 0.00 53 1033.9
20260831202149 66 226 5.2 7.8 0.00 0.00 0.00 53 1034.3
20260831201648 66 135 6.1 7.0 0.00 0.00 0.00 52 1033.9
20260831201143 67 199 3.5 7.0 0.00 0.00 0.00 51 1034.1
20260831200639 66 94 4.3 6.1 0.00 0.00 0.00 52 1034.3
20260831200138 64 99 2.6 3.5 0.00 0.00 0.00 52 1034.5
20260831195634 65 155 2.6 5.2 0.00 0.00 0.00 52 1034.1
20260831195129 64 246 0.9 6.1 0.00 0.00 0.00 53 1034.3
20260831194624 64 330 1.7 3.5 0.00 0.00 0.00 52 1034.4
20260831194119 64 180 2.6 7.0 0.00 0.00 0.00 53 1034.4
20260831193614 65 289 0.9 5.2 0.00 0.00 0.00 52 1034.5
20260831193109 64 242 1.7 3.5 0.00 0.00 0.00 51 1034.5
20260831192604 64 284 0.0 1.7 0.00 0.00 0.00 51 1034.9
20260831192059 65 52 2.6 7.0 0.00 0.00 0.00 50 1034.4
20260831191555 65 64 5.2 7.8 0.00 0.00 0.00 49 1034.5
20260831191050 64 242 1.7 5.2 0.00 0.00 0.00 50 1034.6
20260831190546 64 348 5.2 6.1 0.00 0.00 0.00 50 1035.0
20260831190044 64 1 0.9 6.1 0.00 0.00 0.00 51 1035.0
20260831185540 64 293 0.9 1.7 0.00 0.00 0.00 53 1034.9
20260831185036 64 290 2.6 3.5 0.00 0.00 0.00 51 1034.9
20260831184530 65 94 1.7 6.1 0.00 0.00 0.00 51 1035.2
20260831184026 64 59 4.3 6.1 0.00 0.00 0.00 52 1034.9
20260831183525 64 53 1.7 3.5 0.00 0.00 0.00 53 1035.2
20260831183024 63 259 0.9 2.6 0.00 0.00 0.00 53 1035.2
20260831182519 63 219 1.7 1.7 0.00 0.00 0.00 52 1035.2
20260831182014 62 275 1.7 3.5 0.00 0.00 0.00 53 1035.2
20260831181509 62 3 1.7 2.6 0.00 0.00 0.00 54 1035.2
20260831181004 63 277 0.9 2.6 0.00 0.00 0.00 53 1035.3
20260831180458 63 97 2.6 6.1 0.00 0.00 0.00 52 1035.0
20260831175958 64 318 1.7 3.5 0.00 0.00 0.00 51 1035.4
20260831175454 64 201 1.7 3.5 0.00 0.00 0.00 50 1035.4
20260831174950 65 280 0.9 5.2 0.00 0.00 0.00 49 1035.4
20260831174440 64 262 0.0 0.9 0.00 0.00 0.00 51 1035.3
20260831173939 63 274 1.7 2.6 0.00 0.00 0.00 53 1035.4
20260831173438 63 103 1.7 3.5 0.00 0.00 0.00 51 1035.4
20260831172934 63 153 0.9 5.2 0.00 0.00 0.00 52 1035.4
20260831172429 63 224 1.7 1.7 0.00 0.00 0.00 49 1035.6
20260831171924 63 261 0.9 2.6 0.00 0.00 0.00 53 1035.4
20260831171420 62 221 0.9 2.6 0.00 0.00 0.00 51 1035.6
20260831170916 63 294 0.9 1.7 0.00 0.00 0.00 51 1035.3
20260831170412 62 286 2.6 2.6 0.00 0.00 0.00 50 1035.4
20260831165909 63 44 1.7 5.2 0.00 0.00 0.00 51 1035.6
20260831165405 63 59 2.6 7.0 0.00 0.00 0.00 50 1035.3
20260831164901 63 236 2.6 7.0 0.00 0.00 0.00 50 1035.4
20260831164357 64 282 0.9 1.7 0.00 0.00 0.00 49 1035.2
20260831163852 64 320 1.7 3.5 0.00 0.00 0.00 49 1035.3
20260831163347 64 128 2.6 2.6 0.00 0.00 0.00 47 1035.4
20260831162846 64 238 0.9 1.7 0.00 0.00 0.00 48 1035.2
20260831162342 65 260 0.0 3.5 0.00 0.00 0.00 47 1035.2
20260831161840 65 230 0.0 0.9 0.00 0.00 0.00 46 1035.4
20260831161336 63 346 1.7 2.6 0.00 0.00 0.00 48 1035.2
20260831160831 64 242 0.0 0.9 0.00 0.00 0.00 49 1035.2
20260831160326 63 274 0.0 2.6 0.00 0.00 0.00 49 1034.9
20260831155820 63 254 0.0 1.7 0.00 0.00 0.00 49 1035.2
20260831155315 62 259 0.0 2.6 0.00 0.00 0.00 48 1035.2
20260831154811 64 250 0.0 0.9 0.00 0.00 0.00 46 1035.2
20260831154307 63 246 0.0 0.9 0.00 0.00 0.00 46 1034.8
20260831153805 63 231 0.9 2.6 0.00 0.00 0.00 46 1035.0
20260831153301 63 230 0.9 3.5 0.00 0.00 0.00 45 1034.9
20260831152757 63 236 5.2 6.1 0.00 0.00 0.00 45 1034.6
20260831152253 64 254 0.9 2.6 0.00 0.00 0.00 46 1035.0
20260831151748 64 291 1.7 2.6 0.00 0.00 0.00 44 1034.6
20260831151247 64 223 0.0 0.9 0.00 0.00 0.00 46 1034.6
20260831150742 64 23 1.7 2.6 0.00 0.00 0.00 50 1034.8
20260831150238 65 279 0.9 2.6 0.00 0.00 0.00 44 1034.8
20260831145736 65 234 0.9 1.7 0.00 0.00 0.00 47 1034.8
20260831145233 64 248 0.9 1.7 0.00 0.00 0.00 45 1034.6
20260831144729 62 247 0.0 0.9 0.00 0.00 0.00 46 1034.9
20260831144225 62 237 0.9 5.2 0.00 0.00 0.00 46 1035.0
20260831143724 61 263 0.0 0.0 0.00 0.00 0.00 47 1034.9
20260831143220 61 239 0.9 0.9 0.00 0.00 0.00 51 1034.8
20260831142715 60 257 0.9 2.6 0.00 0.00 0.00 49 1034.6
20260831142211 60 229 1.7 1.7 0.00 0.00 0.00 51 1035.0
20260831141710 59 244 0.0 0.0 0.00 0.00 0.00 53 1034.8
20260831141205 58 250 0.0 0.9 0.00 0.00 0.00 61 1034.8
20260831140704 57 243 0.9 1.7 0.00 0.00 0.00 58 1034.5
20260831140159 56 240 1.7 1.7 0.00 0.00 0.00 59 1034.6
20260831135657 55 233 0.9 1.7 0.00 0.00 0.00 64 1034.4
20260831135153 55 234 0.9 1.7 0.00 0.00 0.00 62 1034.3
20260831134649 55 240 0.9 1.7 0.00 0.00 0.00 62 1034.1
20260831134144 54 219 1.7 1.7 0.00 0.00 0.00 63 1034.3
20260831133643 54 215 1.7 1.7 0.00 0.00 0.00 63 1034.0
20260831133138 54 237 0.9 1.7 0.00 0.00 0.00 63 1034.0
20260831132634 54 240 0.9 0.9 0.00 0.00 0.00 61 1033.9
20260831132133 54 232 1.7 1.7 0.00 0.00 0.00 59 1033.9
20260831131628 55 218 1.7 2.6 0.00 0.00 0.00 57 1033.9
20260831131124 55 233 1.7 2.6 0.00 0.00 0.00 54 1033.7
20260831130619 55 222 0.9 2.6 0.00 0.00 0.00 53 1033.6
20260831130115 55 235 0.9 0.9 0.00 0.00 0.00 57 1033.5
20260831125613 55 222 1.7 1.7 0.00 0.00 0.00 56 1033.6
20260831125109 55 223 1.7 2.6 0.00 0.00 0.00 56 1033.7
20260831124605 53 228 1.7 2.6 0.00 0.00 0.00 57 1033.5
20260831124101 54 222 1.7 2.6 0.00 0.00 0.00 57 1033.3
20260831123600 53 226 1.7 2.6 0.00 0.00 0.00 60 1033.6
20260831123054 54 213 1.7 2.6 0.00 0.00 0.00 58 1033.5
20260831122549 54 218 1.7 2.6 0.00 0.00 0.00 58 1033.3
20260831122044 55 242 0.9 2.6 0.00 0.00 0.00 57 1033.2
20260831121539 56 211 1.7 2.6 0.00 0.00 0.00 56 1033.1
20260831121035 55 189 3.5 3.5 0.00 0.00 0.00 53 1033.1
20260831120534 55 224 1.7 3.5 0.00 0.00 0.00 54 1033.2
20260831120030 55 218 1.7 2.6 0.00 0.00 0.00 55 1032.9
20260831115526 55 196 1.7 3.5 0.00 0.00 0.00 56 1033.2
20260831115021 55 217 1.7 5.2 0.00 0.00 0.00 59 1033.1
20260831114520 54 212 2.6 2.6 0.00 0.00 0.00 56 1032.9
20260831114016 53 201 2.6 3.5 0.00 0.00 0.00 58 1032.9
20260831113514 54 208 2.6 2.6 0.00 0.00 0.00 59 1033.2
20260831113010 54 216 1.7 2.6 0.00 0.00 0.00 58 1033.3
20260831112509 54 211 2.6 2.6 0.00 0.00 0.00 59 1032.8
20260831112004 54 232 2.6 2.6 0.00 0.00 0.00 55 1032.9
20260831111501 55 202 2.6 3.5 0.00 0.00 0.00 57 1033.2
20260831110956 54 210 2.6 2.6 0.00 0.00 0.00 61 1033.1
20260831110451 55 218 2.6 3.5 0.00 0.00 0.00 56 1032.7
20260831105950 54 207 1.7 2.6 0.00 0.00 0.00 59 1032.8
20260831105445 54 232 1.7 3.5 0.00 0.00 0.00 57 1032.9
20260831104945 54 202 2.6 2.6 0.00 0.00 0.00 56 1032.9
20260831104442 54 217 3.5 3.5 0.00 0.00 0.00 55 1032.8
20260831103937 52 242 2.6 3.5 0.00 0.00 0.00 58 1033.1
20260831103432 52 212 2.6 2.6 0.00 0.00 0.00 61 1032.7
20260831102928 52 205 1.7 2.6 0.00 0.00 0.00 64 1032.8
20260831102427 52 237 0.0 0.9 0.00 0.00 0.00 58 1032.5
20260831101922 51 230 1.7 2.6 0.00 0.00 0.00 64 1032.8
20260831101418 51 208 2.6 2.6 0.00 0.00 0.00 66 1032.8
20260831100914 51 204 2.6 2.6 0.00 0.00 0.00 65 1032.5
20260831100409 51 209 2.6 2.6 0.00 0.00 0.00 65 1032.5
20260831095904 51 205 2.6 2.6 0.00 0.00 0.00 65 1032.4
20260831095403 51 208 2.6 2.6 0.00 0.00 0.00 65 1032.5
20260831094859 51 205 2.6 2.6 0.00 0.00 0.00 67 1032.3
20260831094354 50 209 2.6 2.6 0.00 0.00 0.00 67 1032.4
20260831093850 50 204 2.6 2.6 0.00 0.00 0.00 68 1032.1
20260831093345 51 212 1.7 2.6 0.00 0.00 0.00 67 1032.3